Location: Barrialote
(9.9333°N, 67.3500°W)
Time: 19:40:02
(UTC+00:00)

Cosmos 1850 Rocket - Pass Details

Date: 18 April 2024
Orbit: 752 x 783 km, 74.0° (Epoch: 25 May)

Event Time Altitude Azimuth Distance (km) Brightness Sun altitude
Rises 23:40:29 0° 342° (NNW) 3,227 7.7 -15.3°
Reaches altitude 10° 23:42:52 10° 340° (NNW) 2,297 6.9 -15.9°
Maximum altitude 23:48:02 67° 258° (WSW) 824 4.3 -17.1°
Drops below altitude 10° 23:53:09 10° 176° (S) 2,279 6.3 -18.4°
Enters shadow 23:55:27 - 173° (S) 3,170 7.0 -18.9°
